Location: Airlie Beach - Cannonvale QLD, Australia
(20.2768°S, 148.7558°E)
Time: 00:14:23
(UTC+10:00)

Hubble Space Telescope - Pass Details

Date: 21 May 2026
Orbit: 473 x 475 km, 28.5° (Epoch: 5 June)

Event Time Altitude Azimuth Distance (km) Brightness Sun altitude
Rises 19:20:51 0° 251° (WSW) 2,514 5.1 -24.7°
Reaches altitude 10° 19:23:23 10° 236° (SW) 1,638 3.7 -25.3°
Enters shadow 19:24:53 18° 216° (SW) 1,236 2.8 -25.6°
